When you browse on this site, cookies collect data to enhance your experience and personalize the content and advertising you see.
Visit our Privacy Policy to learn more. By continuing to use the site, you agree to this use of cookies and data.
  • In Portugal
  • List of Countries
  • For 7 days
  • Water Temperature
  • Satellite Maps
  • Weather Map
  • Weather Widgets
  • user-avatar
    Login

    Hourly Weather Jaczkow

    Today, 19 December, Wednesday

    Time Temperature Precipitation Wind Pressure Humidity
    00:00 -3°C° 0 mm 2 mps 727 mmHg 92%
    01:00 -4°C° 0 mm 3 mps 727 mmHg 92%
    02:00 -4°C° 0 mm 3 mps 727 mmHg 91%
    03:00 -4°C° 0 mm 3 mps 726 mmHg 90%
    04:00 -4°C° 0 mm 3 mps 726 mmHg 90%
    05:00 -4°C° 0 mm 3 mps 726 mmHg 89%
    06:00 -4°C° 0 mm 4 mps 725 mmHg 88%
    07:00 -4°C° 0 mm 4 mps 725 mmHg 88%
    08:00 -4°C° 0 mm 4 mps 725 mmHg 85%
    09:00 -3°C° 0 mm 4 mps 725 mmHg 82%
    10:00 -4°C° 0 mm 5 mps 725 mmHg 80%
    11:00 -2°C° 0 mm 5 mps 725 mmHg 78%
    12:00 -2°C° 0 mm 5 mps 724 mmHg 77%
    13:00 -2°C° 0 mm 5 mps 724 mmHg 76%
    14:00 -2°C° 0 mm 5 mps 724 mmHg 77%
    15:00 -2°C° 0 mm 5 mps 724 mmHg 78%
    16:00 -3°C° 0 mm 4 mps 723 mmHg 80%
    17:00 -3°C° 0 mm 4 mps 723 mmHg 80%
    18:00 -3°C° 0 mm 4 mps 723 mmHg 80%
    19:00 -3°C° 0 mm 4 mps 723 mmHg 80%
    20:00 -3°C° 0.2 mm 4 mps 723 mmHg 80%
    21:00 -3°C° 0.2 mm 4 mps 723 mmHg 81%
    22:00 -3°C° 0.2 mm 4 mps 723 mmHg 81%
    23:00 -4°C° 0.3 mm 4 mps 723 mmHg 82%

    Tomorrow, 20 December, Thursday

    Time Temperature Precipitation Wind Pressure Humidity
    00:00 -4°C° 0.3 mm 4 mps 723 mmHg 82%
    01:00 -4°C° 0.3 mm 3 mps 723 mmHg 82%
    02:00 -4°C° 0.2 mm 3 mps 722 mmHg 83%
    03:00 -4°C° 0.2 mm 3 mps 722 mmHg 84%
    04:00 -4°C° 0.2 mm 3 mps 722 mmHg 85%
    05:00 -5°C° 0.3 mm 3 mps 722 mmHg 85%
    06:00 -5°C° 0.3 mm 3 mps 722 mmHg 86%
    07:00 -5°C° 0.3 mm 3 mps 722 mmHg 86%
    08:00 -5°C° 0.1 mm 3 mps 722 mmHg 86%
    09:00 -4°C° 0.1 mm 3 mps 722 mmHg 85%
    10:00 -4°C° 0.1 mm 4 mps 722 mmHg 85%
    11:00 -4°C° 0.2 mm 3 mps 722 mmHg 85%
    12:00 -2°C° 0.2 mm 3 mps 722 mmHg 86%
    13:00 -2°C° 0.2 mm 3 mps 722 mmHg 87%
    14:00 -2°C° 0.1 mm 3 mps 722 mmHg 88%
    15:00 -2°C° 0.1 mm 3 mps 722 mmHg 89%
    16:00 -1°C° 0.1 mm 3 mps 722 mmHg 90%
    17:00 -1°C° 0 mm 3 mps 722 mmHg 89%
    18:00 -1°C° 0 mm 3 mps 722 mmHg 89%
    19:00 -2°C° 0 mm 4 mps 723 mmHg 89%
    20:00 -2°C° 0 mm 4 mps 723 mmHg 90%
    21:00 -1°C° 0 mm 4 mps 723 mmHg 90%
    22:00 -1°C° 0 mm 4 mps 723 mmHg 90%
    23:00 -1°C° 0 mm 4 mps 723 mmHg 90%

    Day after tomorrow, 21 December, Friday

    Time Temperature Precipitation Wind Pressure Humidity
    00:00 -1°C° 0 mm 4 mps 723 mmHg 90%
    01:00 -1°C° 0 mm 4 mps 723 mmHg 90%
    02:00 -1°C° 0 mm 4 mps 722 mmHg 90%
    03:00 -1°C° 0 mm 4 mps 722 mmHg 90%
    04:00 -1°C° 0 mm 4 mps 722 mmHg 90%
    05:00 -1°C° 0.1 mm 4 mps 722 mmHg 89%
    06:00 -1°C° 0.1 mm 4 mps 721 mmHg 89%
    07:00 -1°C° 0.1 mm 4 mps 721 mmHg 89%
    08:00 -1°C° 0.1 mm 4 mps 721 mmHg 89%
    09:00 0°C° 0.1 mm 5 mps 720 mmHg 88%
    10:00 0°C° 0.1 mm 5 mps 720 mmHg 88%
    11:00 0°C° 0.2 mm 5 mps 719 mmHg 87%
    12:00 0°C° 0.2 mm 5 mps 718 mmHg 87%
    13:00 0°C° 0.2 mm 5 mps 718 mmHg 86%
    14:00 -1°C° 0.8 mm 6 mps 717 mmHg 86%
    15:00 -1°C° 0.8 mm 6 mps 716 mmHg 85%
    16:00 -1°C° 0.8 mm 7 mps 715 mmHg 85%
    17:00 0°C° 1.3 mm 7 mps 715 mmHg 85%
    18:00 0°C° 1.3 mm 7 mps 714 mmHg 86%
    19:00 +2°C° 1.3 mm 7 mps 714 mmHg 87%
    20:00 +2°C° 0.1 mm 7 mps 714 mmHg 87%
    21:00 +3°C° 0.1 mm 7 mps 714 mmHg 88%
    22:00 +4°C° 0.1 mm 7 mps 714 mmHg 89%
    23:00 +3°C° 0 mm 6 mps 714 mmHg 87%

    22 December, Saturday

    Time Temperature Precipitation Wind Pressure Humidity
    00:00 +3°C° 0 mm 6 mps 714 mmHg 86%
    01:00 +2°C° 0 mm 6 mps 715 mmHg 84%
    02:00 +2°C° 0 mm 6 mps 715 mmHg 84%
    03:00 +2°C° 0 mm 6 mps 715 mmHg 84%
    04:00 +2°C° 0 mm 6 mps 715 mmHg 84%
    05:00 +2°C° 0 mm 5 mps 715 mmHg 84%
    06:00 +2°C° 0 mm 5 mps 715 mmHg 85%
    07:00 +3°C° 0 mm 4 mps 714 mmHg 85%
    08:00 +3°C° 0.1 mm 4 mps 714 mmHg 87%
    09:00 +3°C° 0.1 mm 5 mps 714 mmHg 88%
    10:00 +3°C° 0.1 mm 5 mps 713 mmHg 89%
    11:00 +4°C° 0.3 mm 6 mps 713 mmHg 87%
    12:00 +4°C° 0.3 mm 7 mps 713 mmHg 86%
    13:00 +5°C° 0.3 mm 8 mps 712 mmHg 84%
    14:00 +4°C° 0.2 mm 7 mps 713 mmHg 84%
    15:00 +4°C° 0.2 mm 7 mps 713 mmHg 83%
    16:00 +4°C° 0.2 mm 7 mps 714 mmHg 83%
    17:00 +3°C° 0 mm 6 mps 715 mmHg 84%
    18:00 +3°C° 0 mm 6 mps 715 mmHg 84%
    19:00 +3°C° 0 mm 6 mps 716 mmHg 85%
    20:00 +2°C° 0 mm 6 mps 716 mmHg 84%
    21:00 +2°C° 0 mm 6 mps 716 mmHg 83%
    22:00 +2°C° 0 mm 6 mps 716 mmHg 81%
    23:00 +2°C° 0.3 mm 7 mps 717 mmHg 82%

    23 December, Sunday

    Time Temperature Precipitation Wind Pressure Humidity
    00:00 +2°C° 0.3 mm 7 mps 717 mmHg 83%
    01:00 +1°C° 0.3 mm 8 mps 718 mmHg 83%
    02:00 +1°C° 0.2 mm 8 mps 718 mmHg 84%
    03:00 +2°C° 0.2 mm 7 mps 719 mmHg 84%
    04:00 +2°C° 0.2 mm 6 mps 720 mmHg 85%
    05:00 +2°C° 0.1 mm 6 mps 720 mmHg 85%
    06:00 +1°C° 0.1 mm 6 mps 720 mmHg 85%
    07:00 +1°C° 0.1 mm 5 mps 721 mmHg 85%
    08:00 +1°C° 0.1 mm 6 mps 721 mmHg 84%
    09:00 +1°C° 0.1 mm 6 mps 721 mmHg 83%
    10:00 +2°C° 0.1 mm 6 mps 722 mmHg 82%
    11:00 +2°C° 0 mm 6 mps 722 mmHg 81%
    12:00 +2°C° 0 mm 6 mps 722 mmHg 79%
    13:00 +2°C° 0 mm 6 mps 722 mmHg 78%
    14:00 +2°C° 0.1 mm 6 mps 722 mmHg 79%
    15:00 +2°C° 0.1 mm 6 mps 722 mmHg 81%
    16:00 +1°C° 0.1 mm 5 mps 722 mmHg 82%
    17:00 +1°C° 0.1 mm 5 mps 722 mmHg 82%
    18:00 +1°C° 0.1 mm 6 mps 722 mmHg 82%
    19:00 +1°C° 0.1 mm 6 mps 723 mmHg 83%
    20:00 +1°C° 0 mm 6 mps 723 mmHg 83%
    21:00 +1°C° 0 mm 6 mps 723 mmHg 83%
    22:00 +1°C° 0 mm 6 mps 723 mmHg 83%
    23:00 +1°C° 0.1 mm 6 mps 724 mmHg 84%

    24 December, Monday

    Time Temperature Precipitation Wind Pressure Humidity
    00:00 +1°C° 0.1 mm 6 mps 724 mmHg 85%
    01:00 0°C° 0.1 mm 5 mps 724 mmHg 86%
    02:00 0°C° 0.1 mm 5 mps 725 mmHg 87%
    03:00 0°C° 0.1 mm 4 mps 725 mmHg 88%
    04:00 0°C° 0.1 mm 4 mps 725 mmHg 89%
    05:00 +1°C° 0.1 mm 3 mps 725 mmHg 90%
    06:00 +1°C° 0.1 mm 3 mps 726 mmHg 91%
    07:00 +1°C° 0.1 mm 3 mps 726 mmHg 92%
    08:00 +1°C° 0.1 mm 3 mps 727 mmHg 90%
    09:00 +1°C° 0.1 mm 3 mps 727 mmHg 88%
    10:00 0°C° 0.1 mm 4 mps 727 mmHg 86%
    11:00 +1°C° 0.1 mm 4 mps 728 mmHg 83%
    12:00 +1°C° 0.1 mm 4 mps 728 mmHg 81%
    13:00 +2°C° 0.1 mm 5 mps 728 mmHg 78%
    14:00 +1°C° 0.1 mm 4 mps 728 mmHg 81%
    15:00 +1°C° 0.1 mm 4 mps 728 mmHg 83%
    16:00 +1°C° 0.1 mm 3 mps 728 mmHg 85%
    17:00 +1°C° 0 mm 3 mps 728 mmHg 87%
    18:00 +1°C° 0 mm 3 mps 729 mmHg 88%
    19:00 +1°C° 0 mm 2 mps 729 mmHg 89%
    20:00 +1°C° 0 mm 2 mps 729 mmHg 90%
    21:00 +1°C° 0 mm 2 mps 729 mmHg 90%
    22:00 +1°C° 0 mm 2 mps 729 mmHg 90%
    23:00 -1°C° 0 mm 2 mps 729 mmHg 90%
    Show more